Location: Newark
(35.6799°N, 139.7636°E)
Time: 15:14:38
(UTC+00:00)

Courier 1B - Pass Details

Date: 18 December 2019
Orbit: 962 x 1209 km, 28.3° (Epoch: 17 January)

Event Time Altitude Azimuth Distance (km) Brightness Sun altitude
Rises 11:24:40 0° 262° (W) 3,774 11.3 -46.8°
Reaches altitude 10° 11:27:24 10° 256° (WSW) 2,856 10.4 -47.3°
Enters shadow 11:28:56 17° 251° (WSW) 2,378 9.9 -47.6°
